| time (UTC) | temp F | wind direction | speed MPH | gust MPH | rain 1hr in | rain 24hr in | rain mn in | humidity % | barometer mb |
| 20260905205923 | 88 | 101 | 3.0 | 6.0 | 0.00 | 0.00 | 0.00 | 24 | 1020.6 |
| 20260905205422 | 88 | 20 | 4.0 | 8.0 | 0.00 | 0.00 | 0.00 | 24 | 1020.6 |
| 20260905204924 | 88 | 117 | 4.0 | 12.0 | 0.00 | 0.00 | 0.00 | 24 | 1020.6 |
| 20260905204422 | 89 | 112 | 4.0 | 12.0 | 0.00 | 0.00 | 0.00 | 23 | 1020.6 |
| 20260905203922 | 89 | 59 | 6.0 | 13.0 | 0.00 | 0.00 | 0.00 | 23 | 1020.6 |
| 20260905203422 | 89 | 82 | 6.0 | 13.0 | 0.00 | 0.00 | 0.00 | 24 | 1020.6 |
| 20260905202924 | 88 | 240 | 5.0 | 12.0 | 0.00 | 0.00 | 0.00 | 25 | 1020.6 |
| 20260905202421 | 88 | 124 | 4.0 | 12.0 | 0.00 | 0.00 | 0.00 | 25 | 1020.6 |
| 20260905202153 | 87 | 71 | 2.0 | 10.0 | 0.00 | 0.00 | 0.00 | 26 | 1020.6 |
| 20260905201421 | 87 | 209 | 3.0 | 7.0 | 0.00 | 0.00 | 0.00 | 27 | 1020.6 |
| 20260905201153 | 86 | 80 | 5.0 | 12.0 | 0.00 | 0.00 | 0.00 | 26 | 1020.6 |
| 20260905200420 | 87 | 84 | 5.0 | 15.0 | 0.00 | 0.00 | 0.00 | 25 | 1020.6 |
| 20260905195920 | 89 | 67 | 5.0 | 15.0 | 0.00 | 0.00 | 0.00 | 25 | 1020.6 |
| 20260905195420 | 88 | 65 | 6.0 | 12.0 | 0.00 | 0.00 | 0.00 | 24 | 1020.6 |
| 20260905195153 | 89 | 53 | 7.0 | 13.0 | 0.00 | 0.00 | 0.00 | 24 | 1020.6 |
| 20260905194652 | 88 | 72 | 6.0 | 13.0 | 0.00 | 0.00 | 0.00 | 24 | 1020.6 |
| 20260905193922 | 88 | 110 | 5.0 | 11.0 | 0.00 | 0.00 | 0.00 | 25 | 1020.6 |
| 20260905193651 | 88 | 57 | 5.0 | 11.0 | 0.00 | 0.00 | 0.00 | 25 | 1020.6 |
| 20260905192920 | 87 | 127 | 6.0 | 14.0 | 0.00 | 0.00 | 0.00 | 26 | 1020.6 |
| 20260905192651 | 87 | 47 | 8.0 | 14.0 | 0.00 | 0.00 | 0.00 | 25 | 1020.6 |
| 20260905191918 | 88 | 75 | 7.0 | 12.0 | 0.00 | 0.00 | 0.00 | 26 | 1020.6 |
| 20260905191649 | 87 | 84 | 6.0 | 12.0 | 0.00 | 0.00 | 0.00 | 27 | 1020.6 |
| 20260905190918 | 87 | 107 | 5.0 | 13.0 | 0.00 | 0.00 | 0.00 | 27 | 1020.6 |
| 20260905190419 | 87 | 84 | 5.0 | 13.0 | 0.00 | 0.00 | 0.00 | 25 | 1020.6 |
| 20260905185919 | 86 | 120 | 4.0 | 12.0 | 0.00 | 0.00 | 0.00 | 26 | 1020.6 |
| 20260905185420 | 87 | 112 | 4.0 | 14.0 | 0.00 | 0.00 | 0.00 | 25 | 1020.6 |
| 20260905185150 | 87 | 39 | 5.0 | 14.0 | 0.00 | 0.00 | 0.00 | 25 | 1020.6 |
| 20260905184418 | 87 | 74 | 5.0 | 12.0 | 0.00 | 0.00 | 0.00 | 25 | 1020.6 |
| 20260905183920 | 87 | 91 | 4.0 | 12.0 | 0.00 | 0.00 | 0.00 | 26 | 1020.6 |
| 20260905183423 | 86 | 91 | 3.0 | 9.0 | 0.00 | 0.00 | 0.00 | 29 | 1020.6 |
| 20260905183418 | 87 | 85 | 3.0 | 10.0 | 0.00 | 0.00 | 0.00 | 28 | 1020.6 |
| 20260905182419 | 86 | 248 | 3.0 | 9.0 | 0.00 | 0.00 | 0.00 | 28 | 1020.6 |
| 20260905182152 | 86 | 94 | 4.0 | 9.0 | 0.00 | 0.00 | 0.00 | 30 | 1020.6 |
| 20260905181649 | 85 | 79 | 4.0 | 9.0 | 0.00 | 0.00 | 0.00 | 31 | 1020.6 |
| 20260905180920 | 84 | 56 | 2.0 | 9.0 | 0.00 | 0.00 | 0.00 | 30 | 1020.6 |
| 20260905180417 | 84 | 70 | 2.0 | 7.0 | 0.00 | 0.00 | 0.00 | 30 | 1020.6 |
| 20260905175918 | 84 | 227 | 3.0 | 9.0 | 0.00 | 0.00 | 0.00 | 30 | 1020.6 |
| 20260905175418 | 85 | 117 | 3.0 | 9.0 | 0.00 | 0.00 | 0.00 | 30 | 1020.6 |
| 20260905175151 | 85 | 102 | 2.0 | 10.0 | 0.00 | 0.00 | 0.00 | 30 | 1020.6 |
| 20260905174418 | 85 | 118 | 3.0 | 10.0 | 0.00 | 0.00 | 0.00 | 31 | 1020.6 |
| 20260905173918 | 84 | 241 | 4.0 | 10.0 | 0.00 | 0.00 | 0.00 | 32 | 1020.6 |
| 20260905173416 | 85 | 109 | 3.0 | 10.0 | 0.00 | 0.00 | 0.00 | 32 | 1020.6 |
| 20260905172918 | 84 | 84 | 3.0 | 10.0 | 0.00 | 0.00 | 0.00 | 31 | 1020.6 |
| 20260905172417 | 83 | 120 | 4.0 | 10.0 | 0.00 | 0.00 | 0.00 | 32 | 1020.6 |
| 20260905172149 | 83 | 90 | 3.0 | 10.0 | 0.00 | 0.00 | 0.00 | 32 | 1020.6 |
| 20260905171417 | 84 | 103 | 3.0 | 7.0 | 0.00 | 0.00 | 0.00 | 32 | 1020.6 |
| 20260905170915 | 84 | 98 | 3.0 | 8.0 | 0.00 | 0.00 | 0.00 | 31 | 1020.6 |
| 20260905170412 | 85 | 91 | 3.0 | 8.0 | 0.00 | 0.00 | 0.00 | 31 | 1020.6 |
| 20260905170145 | 85 | 80 | 2.0 | 7.0 | 0.00 | 0.00 | 0.00 | 32 | 1020.6 |
| 20260905165413 | 85 | 127 | 2.0 | 9.0 | 0.00 | 0.00 | 0.00 | 31 | 1020.6 |
| 20260905164913 | 85 | 125 | 3.0 | 9.0 | 0.00 | 0.00 | 0.00 | 31 | 1020.6 |
| 20260905164640 | 85 | 102 | 4.0 | 6.0 | 0.00 | 0.00 | 0.00 | 32 | 1020.6 |
| 20260905163911 | 84 | 122 | 5.0 | 10.0 | 0.00 | 0.00 | 0.00 | 31 | 1020.6 |
| 20260905163642 | 84 | 74 | 4.0 | 10.0 | 0.00 | 0.00 | 0.00 | 29 | 1020.6 |
| 20260905162911 | 84 | 79 | 3.0 | 7.0 | 0.00 | 0.00 | 0.00 | 31 | 1020.6 |
| 20260905162409 | 83 | 111 | 4.0 | 8.0 | 0.00 | 0.00 | 0.00 | 30 | 1020.6 |
| 20260905162139 | 83 | 89 | 4.0 | 8.0 | 0.00 | 0.00 | 0.00 | 30 | 1020.6 |
| 20260905161409 | 83 | 123 | 3.0 | 6.0 | 0.00 | 0.00 | 0.00 | 29 | 1020.6 |
| 20260905160909 | 83 | 122 | 2.0 | 6.0 | 0.00 | 0.00 | 0.00 | 29 | 1020.6 |
| 20260905160409 | 83 | 99 | 2.0 | 5.0 | 0.00 | 0.00 | 0.00 | 30 | 1020.6 |
| 20260905155908 | 82 | 89 | 1.0 | 3.0 | 0.00 | 0.00 | 0.00 | 30 | 1020.6 |
| 20260905155410 | 82 | 84 | 1.0 | 2.0 | 0.00 | 0.00 | 0.00 | 28 | 1020.6 |
| 20260905154908 | 82 | 226 | 0.0 | 2.0 | 0.00 | 0.00 | 0.00 | 28 | 1020.6 |
| 20260905154409 | 82 | 140 | 0.0 | 2.0 | 0.00 | 0.00 | 0.00 | 31 | 1020.6 |
| 20260905153907 | 81 | 115 | 0.0 | 2.0 | 0.00 | 0.00 | 0.00 | 30 | 1020.6 |
| 20260905153408 | 80 | 89 | 0.0 | 2.0 | 0.00 | 0.00 | 0.00 | 31 | 1020.6 |
| 20260905152906 | 79 | 92 | 0.0 | 2.0 | 0.00 | 0.00 | 0.00 | 32 | 1020.6 |
| 20260905152407 | 78 | 98 | 0.0 | 2.0 | 0.00 | 0.00 | 0.00 | 33 | 1020.6 |
| 20260905151904 | 76 | 88 | 0.0 | 2.0 | 0.00 | 0.00 | 0.00 | 36 | 1020.6 |
| 20260905151406 | 75 | 88 | 0.0 | 0.0 | 0.00 | 0.00 | 0.00 | 37 | 1020.6 |
| 20260905150903 | 74 | 88 | 0.0 | 0.0 | 0.00 | 0.00 | 0.00 | 38 | 1020.6 |
| 20260905150404 | 73 | 88 | 0.0 | 0.0 | 0.00 | 0.00 | 0.00 | 38 | 1020.6 |
| 20260905145903 | 74 | 89 | 0.0 | 0.0 | 0.00 | 0.00 | 0.00 | 38 | 1020.6 |
| 20260905145406 | 74 | 88 | 0.0 | 0.0 | 0.00 | 0.00 | 0.00 | 38 | 1020.6 |
| 20260905144903 | 73 | 88 | 0.0 | 0.0 | 0.00 | 0.00 | 0.00 | 39 | 1020.6 |
| 20260905144404 | 73 | 88 | 0.0 | 1.0 | 0.00 | 0.00 | 0.00 | 37 | 1020.6 |
| 20260905143903 | 74 | 88 | 0.0 | 2.0 | 0.00 | 0.00 | 0.00 | 37 | 1020.6 |
| 20260905143405 | 75 | 88 | 1.0 | 2.0 | 0.00 | 0.00 | 0.00 | 36 | 1020.6 |
| 20260905142903 | 76 | 246 | 0.0 | 1.0 | 0.00 | 0.00 | 0.00 | 34 | 1020.6 |
| 20260905142405 | 77 | 248 | 0.0 | 0.0 | 0.00 | 0.00 | 0.00 | 34 | 1020.6 |
| 20260905141904 | 77 | 248 | 0.0 | 0.0 | 0.00 | 0.00 | 0.00 | 33 | 1020.6 |
| 20260905141406 | 77 | 250 | 0.0 | 1.0 | 0.00 | 0.00 | 0.00 | 34 | 1020.6 |
| 20260905140903 | 77 | 243 | 0.0 | 1.0 | 0.00 | 0.00 | 0.00 | 34 | 1020.6 |
| 20260905140406 | 78 | 88 | 0.0 | 1.0 | 0.00 | 0.00 | 0.00 | 34 | 1020.6 |
| 20260905135903 | 77 | 86 | 0.0 | 0.0 | 0.00 | 0.00 | 0.00 | 36 | 1020.6 |
| 20260905135404 | 76 | 86 | 0.0 | 1.0 | 0.00 | 0.00 | 0.00 | 36 | 1020.6 |
| 20260905134904 | 74 | 86 | 1.0 | 3.0 | 0.00 | 0.00 | 0.00 | 39 | 1020.6 |
| 20260905134405 | 74 | 86 | 1.0 | 3.0 | 0.00 | 0.00 | 0.00 | 38 | 1020.6 |
| 20260905133904 | 73 | 109 | 0.0 | 1.0 | 0.00 | 0.00 | 0.00 | 38 | 1020.6 |
| 20260905133405 | 73 | 230 | 0.0 | 1.0 | 0.00 | 0.00 | 0.00 | 39 | 1020.6 |
| 20260905133137 | 72 | 125 | 0.0 | 1.0 | 0.00 | 0.00 | 0.00 | 40 | 1020.6 |
| 20260905132404 | 71 | 224 | 0.0 | 2.0 | 0.00 | 0.00 | 0.00 | 40 | 1020.6 |
| 20260905131904 | 70 | 276 | 0.0 | 2.0 | 0.00 | 0.00 | 0.00 | 42 | 1020.6 |
| 20260905131404 | 70 | 253 | 0.0 | 1.0 | 0.00 | 0.00 | 0.00 | 41 | 1020.6 |
| 20260905130903 | 69 | 245 | 0.0 | 1.0 | 0.00 | 0.00 | 0.00 | 41 | 1020.6 |
| 20260905130403 | 69 | 234 | 0.0 | 3.0 | 0.00 | 0.00 | 0.00 | 42 | 1020.6 |
| 20260905125905 | 68 | 224 | 0.0 | 3.0 | 0.00 | 0.00 | 0.00 | 43 | 1020.6 |
| 20260905125637 | 68 | 150 | 0.0 | 2.0 | 0.00 | 0.00 | 0.00 | 44 | 1020.6 |
| 20260905125134 | 67 | 150 | 0.0 | 2.0 | 0.00 | 0.00 | 0.00 | 45 | 1020.6 |
| 20260905124401 | 66 | 257 | 0.0 | 2.0 | 0.00 | 0.00 | 0.00 | 45 | 1020.6 |
| 20260905123903 | 66 | 165 | 0.0 | 2.0 | 0.00 | 0.00 | 0.00 | 45 | 1020.6 |
| 20260905123404 | 67 | 228 | 0.0 | 2.0 | 0.00 | 0.00 | 0.00 | 45 | 1020.6 |
| 20260905122903 | 67 | 221 | 0.0 | 4.0 | 0.00 | 0.00 | 0.00 | 43 | 1020.6 |
| 20260905122402 | 68 | 245 | 0.0 | 4.0 | 0.00 | 0.00 | 0.00 | 42 | 1020.6 |
| 20260905121903 | 69 | 99 | 1.0 | 2.0 | 0.00 | 0.00 | 0.00 | 41 | 1020.6 |
| 20260905121403 | 68 | 86 | 0.0 | 2.0 | 0.00 | 0.00 | 0.00 | 41 | 1020.6 |
| 20260905120903 | 68 | 217 | 0.0 | 1.0 | 0.00 | 0.00 | 0.00 | 41 | 1020.6 |
| 20260905120406 | 67 | 223 | 0.0 | 0.0 | 0.00 | 0.00 | 0.00 | 41 | 1020.6 |
| 20260905120402 | 68 | 240 | 0.0 | 1.0 | 0.00 | 0.00 | 0.00 | 40 | 1020.6 |
| 20260905115400 | 67 | 214 | 0.0 | 2.0 | 0.00 | 0.00 | 0.00 | 42 | 1020.6 |
| 20260905115131 | 68 | 214 | 0.0 | 2.0 | 0.00 | 0.00 | 0.00 | 42 | 1020.6 |
| 20260905114400 | 69 | 216 | 0.0 | 2.0 | 0.00 | 0.00 | 0.00 | 39 | 1020.6 |
| 20260905113902 | 69 | 285 | 0.0 | 1.0 | 0.00 | 0.00 | 0.00 | 39 | 1020.6 |
| 20260905113359 | 69 | 286 | 0.0 | 2.0 | 0.00 | 0.00 | 0.00 | 40 | 1020.6 |
| 20260905112859 | 69 | 285 | 0.0 | 2.0 | 0.00 | 0.00 | 0.00 | 41 | 1020.6 |
| 20260905112359 | 70 | 286 | 0.0 | 2.0 | 0.00 | 0.00 | 0.00 | 38 | 1020.6 |
| 20260905112132 | 72 | 286 | 1.0 | 3.0 | 0.00 | 0.00 | 0.00 | 36 | 1020.6 |
| 20260905111402 | 73 | 275 | 1.0 | 3.0 | 0.00 | 0.00 | 0.00 | 35 | 1020.6 |
| 20260905111131 | 72 | 273 | 0.0 | 2.0 | 0.00 | 0.00 | 0.00 | 36 | 1020.6 |
| 20260905110357 | 72 | 276 | 0.0 | 2.0 | 0.00 | 0.00 | 0.00 | 36 | 1020.6 |
| 20260905105859 | 72 | 280 | 0.0 | 2.0 | 0.00 | 0.00 | 0.00 | 36 | 1020.6 |
| 20260905105358 | 73 | 279 | 0.0 | 1.0 | 0.00 | 0.00 | 0.00 | 37 | 1020.6 |
| 20260905104857 | 73 | 279 | 0.0 | 2.0 | 0.00 | 0.00 | 0.00 | 36 | 1020.6 |
| 20260905104359 | 72 | 279 | 0.0 | 2.0 | 0.00 | 0.00 | 0.00 | 38 | 1020.6 |
| 20260905103858 | 71 | 293 | 1.0 | 2.0 | 0.00 | 0.00 | 0.00 | 39 | 1020.6 |
| 20260905103634 | 71 | 293 | 1.0 | 2.0 | 0.00 | 0.00 | 0.00 | 39 | 1020.6 |
| 20260905102357 | 71 | 286 | 0.0 | 0.0 | 0.00 | 0.00 | 0.00 | 39 | 1020.6 |
| 20260905101900 | 71 | 286 | 0.0 | 1.0 | 0.00 | 0.00 | 0.00 | 39 | 1020.6 |
| 20260905101357 | 72 | 286 | 1.0 | 3.0 | 0.00 | 0.00 | 0.00 | 39 | 1020.6 |
| 20260905100857 | 73 | 286 | 1.0 | 3.0 | 0.00 | 0.00 | 0.00 | 37 | 1020.6 |
| 20260905100357 | 73 | 279 | 2.0 | 4.0 | 0.00 | 0.00 | 0.00 | 37 | 1020.6 |
| 20260905095858 | 72 | 284 | 1.0 | 4.0 | 0.00 | 0.00 | 0.00 | 38 | 1020.6 |
| 20260905095358 | 73 | 271 | 1.0 | 3.0 | 0.00 | 0.00 | 0.00 | 37 | 1020.6 |
| 20260905094859 | 73 | 278 | 0.0 | 2.0 | 0.00 | 0.00 | 0.00 | 36 | 1020.6 |
| 20260905094358 | 73 | 278 | 1.0 | 3.0 | 0.00 | 0.00 | 0.00 | 36 | 1020.6 |
| 20260905093900 | 73 | 278 | 0.0 | 3.0 | 0.00 | 0.00 | 0.00 | 37 | 1020.6 |
| 20260905093358 | 73 | 279 | 1.0 | 3.0 | 0.00 | 0.00 | 0.00 | 37 | 1020.6 |
| 20260905092857 | 74 | 281 | 1.0 | 3.0 | 0.00 | 0.00 | 0.00 | 36 | 1020.6 |
| 20260905092628 | 74 | 277 | 1.0 | 3.0 | 0.00 | 0.00 | 0.00 | 36 | 1020.6 |
| 20260905091855 | 74 | 269 | 2.0 | 3.0 | 0.00 | 0.00 | 0.00 | 36 | 1020.6 |
| 20260905091356 | 74 | 274 | 2.0 | 3.0 | 0.00 | 0.00 | 0.00 | 36 | 1020.6 |
| 20260905090857 | 74 | 276 | 1.0 | 2.0 | 0.00 | 0.00 | 0.00 | 36 | 1020.6 |
| 20260905090358 | 73 | 270 | 1.0 | 3.0 | 0.00 | 0.00 | 0.00 | 36 | 1020.6 |
| 20260905085855 | 73 | 280 | 1.0 | 3.0 | 0.00 | 0.00 | 0.00 | 37 | 1020.6 |
| 20260905085355 | 73 | 278 | 1.0 | 2.0 | 0.00 | 0.00 | 0.00 | 37 | 1020.6 |
| 20260905084856 | 73 | 274 | 2.0 | 3.0 | 0.00 | 0.00 | 0.00 | 37 | 1020.6 |
| 20260905084402 | 71 | 281 | 0.0 | 2.0 | 0.00 | 0.00 | 0.00 | 38 | 1020.6 |
| 20260905084357 | 72 | 274 | 1.0 | 3.0 | 0.00 | 0.00 | 0.00 | 37 | 1020.6 |
| 20260905083356 | 71 | 264 | 0.0 | 0.0 | 0.00 | 0.00 | 0.00 | 39 | 1020.6 |
| 20260905082856 | 71 | 264 | 0.0 | 0.0 | 0.00 | 0.00 | 0.00 | 38 | 1020.6 |
| 20260905082626 | 72 | 264 | 0.0 | 0.0 | 0.00 | 0.00 | 0.00 | 38 | 1020.6 |
| 20260905081853 | 71 | 264 | 0.0 | 1.0 | 0.00 | 0.00 | 0.00 | 38 | 1020.6 |
| 20260905081355 | 71 | 264 | 0.0 | 1.0 | 0.00 | 0.00 | 0.00 | 38 | 1020.6 |
| 20260905080853 | 71 | 264 | 0.0 | 1.0 | 0.00 | 0.00 | 0.00 | 39 | 1020.6 |
| 20260905080356 | 71 | 264 | 0.0 | 0.0 | 0.00 | 0.00 | 0.00 | 39 | 1020.6 |
| 20260905075854 | 71 | 264 | 0.0 | 1.0 | 0.00 | 0.00 | 0.00 | 39 | 1020.6 |
| 20260905075356 | 71 | 264 | 0.0 | 1.0 | 0.00 | 0.00 | 0.00 | 39 | 1020.6 |
| 20260905074855 | 71 | 264 | 0.0 | 0.0 | 0.00 | 0.00 | 0.00 | 38 | 1020.6 |
| 20260905074353 | 71 | 264 | 0.0 | 0.0 | 0.00 | 0.00 | 0.00 | 39 | 1020.6 |
| 20260905073852 | 71 | 202 | 0.0 | 1.0 | 0.00 | 0.00 | 0.00 | 38 | 1020.6 |
| 20260905073353 | 72 | 158 | 0.0 | 1.0 | 0.00 | 0.00 | 0.00 | 38 | 1020.6 |
| 20260905072851 | 72 | 257 | 0.0 | 1.0 | 0.00 | 0.00 | 0.00 | 37 | 1020.6 |
| 20260905072352 | 73 | 265 | 0.0 | 2.0 | 0.00 | 0.00 | 0.00 | 38 | 1020.6 |
| 20260905071851 | 73 | 270 | 1.0 | 2.0 | 0.00 | 0.00 | 0.00 | 37 | 1020.6 |
| 20260905071352 | 73 | 270 | 1.0 | 3.0 | 0.00 | 0.00 | 0.00 | 37 | 1020.6 |
| 20260905071127 | 73 | 276 | 0.0 | 3.0 | 0.00 | 0.00 | 0.00 | 37 | 1020.6 |
| 20260905070624 | 73 | 274 | 0.0 | 1.0 | 0.00 | 0.00 | 0.00 | 37 | 1020.6 |
| 20260905070122 | 73 | 274 | 1.0 | 5.0 | 0.00 | 0.00 | 0.00 | 37 | 1020.6 |
| 20260905065351 | 73 | 274 | 2.0 | 6.0 | 0.00 | 0.00 | 0.00 | 37 | 1020.6 |
| 20260905064849 | 74 | 292 | 3.0 | 6.0 | 0.00 | 0.00 | 0.00 | 36 | 1020.6 |
| 20260905064350 | 73 | 281 | 2.0 | 5.0 | 0.00 | 0.00 | 0.00 | 36 | 1020.6 |
| 20260905064120 | 73 | 278 | 2.0 | 4.0 | 0.00 | 0.00 | 0.00 | 37 | 1020.6 |
| 20260905063350 | 73 | 281 | 1.0 | 4.0 | 0.00 | 0.00 | 0.00 | 36 | 1020.6 |
| 20260905062848 | 73 | 275 | 2.0 | 3.0 | 0.00 | 0.00 | 0.00 | 36 | 1020.6 |
| 20260905062349 | 73 | 281 | 2.0 | 4.0 | 0.00 | 0.00 | 0.00 | 36 | 1020.6 |
| 20260905062123 | 73 | 285 | 2.0 | 4.0 | 0.00 | 0.00 | 0.00 | 36 | 1020.6 |
| 20260905061347 | 73 | 285 | 3.0 | 4.0 | 0.00 | 0.00 | 0.00 | 37 | 1020.6 |
| 20260905060848 | 72 | 297 | 2.0 | 4.0 | 0.00 | 0.00 | 0.00 | 38 | 1020.6 |
| 20260905060348 | 72 | 278 | 2.0 | 4.0 | 0.00 | 0.00 | 0.00 | 38 | 1020.6 |
| 20260905060118 | 72 | 286 | 2.0 | 4.0 | 0.00 | 0.00 | 0.00 | 38 | 1020.6 |
| 20260905055346 | 73 | 296 | 2.0 | 4.0 | 0.00 | 0.00 | 0.00 | 37 | 1020.6 |
| 20260905054847 | 72 | 288 | 3.0 | 7.0 | 0.00 | 0.00 | 0.00 | 37 | 1020.6 |
| 20260905054348 | 72 | 295 | 4.0 | 7.0 | 0.00 | 0.00 | 0.00 | 38 | 1020.6 |
| 20260905053847 | 72 | 307 | 4.0 | 7.0 | 0.00 | 0.00 | 0.00 | 38 | 1020.6 |
| 20260905053346 | 73 | 285 | 4.0 | 7.0 | 0.00 | 0.00 | 0.00 | 37 | 1020.6 |
| 20260905052847 | 73 | 295 | 4.0 | 6.0 | 0.00 | 0.00 | 0.00 | 37 | 1020.6 |
| 20260905052349 | 73 | 294 | 4.0 | 6.0 | 0.00 | 0.00 | 0.00 | 37 | 1020.6 |
| 20260905051848 | 72 | 283 | 4.0 | 6.0 | 0.00 | 0.00 | 0.00 | 38 | 1020.6 |
| 20260905051348 | 72 | 297 | 4.0 | 6.0 | 0.00 | 0.00 | 0.00 | 38 | 1020.6 |
| 20260905050847 | 71 | 301 | 4.0 | 6.0 | 0.00 | 0.00 | 0.00 | 39 | 1020.6 |
| 20260905050349 | 71 | 301 | 4.0 | 6.0 | 0.00 | 0.00 | 0.00 | 39 | 1020.6 |
| 20260905050117 | 71 | 302 | 4.0 | 6.0 | 0.00 | 0.00 | 0.00 | 39 | 1020.6 |
| 20260905045348 | 71 | 296 | 4.0 | 5.0 | 0.00 | 0.00 | 0.00 | 40 | 1020.6 |
| 20260905044847 | 71 | 293 | 4.0 | 6.0 | 0.00 | 0.00 | 0.00 | 39 | 1020.6 |
| 20260905044347 | 71 | 304 | 4.0 | 6.0 | 0.00 | 0.00 | 0.00 | 39 | 1020.6 |
| 20260905043847 | 71 | 296 | 4.0 | 6.0 | 0.00 | 0.00 | 0.00 | 39 | 1020.6 |
| 20260905043346 | 72 | 304 | 4.0 | 6.0 | 0.00 | 0.00 | 0.00 | 38 | 1020.6 |
| 20260905043118 | 72 | 302 | 4.0 | 6.0 | 0.00 | 0.00 | 0.00 | 38 | 1020.6 |
| 20260905042348 | 73 | 311 | 4.0 | 7.0 | 0.00 | 0.00 | 0.00 | 38 | 1020.6 |
| 20260905041846 | 74 | 297 | 4.0 | 7.0 | 0.00 | 0.00 | 0.00 | 37 | 1020.6 |
| 20260905041348 | 74 | 316 | 4.0 | 6.0 | 0.00 | 0.00 | 0.00 | 37 | 1020.6 |
| 20260905040849 | 74 | 333 | 3.0 | 6.0 | 0.00 | 0.00 | 0.00 | 37 | 1020.6 |
| 20260905040351 | 75 | 325 | 3.0 | 7.0 | 0.00 | 0.00 | 0.00 | 36 | 1020.6 |
| 20260905040346 | 74 | 333 | 3.0 | 6.0 | 0.00 | 0.00 | 0.00 | 37 | 1020.6 |
| 20260905035349 | 75 | 323 | 3.0 | 7.0 | 0.00 | 0.00 | 0.00 | 36 | 1020.6 |
| 20260905034847 | 75 | 323 | 2.0 | 6.0 | 0.00 | 0.00 | 0.00 | 36 | 1020.6 |
| 20260905034619 | 75 | 345 | 2.0 | 6.0 | 0.00 | 0.00 | 0.00 | 35 | 1020.6 |
| 20260905033848 | 75 | 299 | 2.0 | 4.0 | 0.00 | 0.00 | 0.00 | 36 | 1020.6 |
| 20260905033346 | 75 | 311 | 2.0 | 5.0 | 0.00 | 0.00 | 0.00 | 35 | 1020.6 |
| 20260905032847 | 75 | 313 | 2.0 | 5.0 | 0.00 | 0.00 | 0.00 | 36 | 1020.6 |
| 20260905032346 | 74 | 310 | 2.0 | 4.0 | 0.00 | 0.00 | 0.00 | 36 | 1020.6 |
| 20260905031848 | 75 | 304 | 1.0 | 3.0 | 0.00 | 0.00 | 0.00 | 36 | 1020.6 |
| 20260905031347 | 76 | 301 | 1.0 | 2.0 | 0.00 | 0.00 | 0.00 | 35 | 1020.6 |
| 20260905030846 | 76 | 288 | 1.0 | 2.0 | 0.00 | 0.00 | 0.00 | 35 | 1020.6 |
| 20260905030348 | 76 | 278 | 0.0 | 2.0 | 0.00 | 0.00 | 0.00 | 35 | 1020.6 |
| 20260905025848 | 76 | 325 | 1.0 | 3.0 | 0.00 | 0.00 | 0.00 | 34 | 1020.6 |
| 20260905025350 | 77 | 335 | 2.0 | 6.0 | 0.00 | 0.00 | 0.00 | 34 | 1020.6 |
| 20260905024846 | 77 | 301 | 2.0 | 6.0 | 0.00 | 0.00 | 0.00 | 34 | 1020.6 |
| 20260905024350 | 77 | 7 | 2.0 | 4.0 | 0.00 | 0.00 | 0.00 | 34 | 1020.6 |
| 20260905023846 | 77 | 309 | 2.0 | 4.0 | 0.00 | 0.00 | 0.00 | 33 | 1020.6 |
| 20260905023346 | 77 | 328 | 2.0 | 4.0 | 0.00 | 0.00 | 0.00 | 34 | 1020.6 |
| 20260905023119 | 77 | 323 | 1.0 | 6.0 | 0.00 | 0.00 | 0.00 | 35 | 1020.6 |
| 20260905022619 | 77 | 335 | 1.0 | 6.0 | 0.00 | 0.00 | 0.00 | 35 | 1020.6 |
| 20260905022507 | 77 | 311 | 1.0 | 4.0 | 0.00 | 0.00 | 0.00 | 35 | 1020.6 |
| 20260905021345 | 77 | 330 | 1.0 | 4.0 | 0.00 | 0.00 | 0.00 | 34 | 1020.6 |
| 20260905020846 | 77 | 303 | 1.0 | 3.0 | 0.00 | 0.00 | 0.00 | 34 | 1020.6 |
| 20260905020345 | 77 | 322 | 1.0 | 3.0 | 0.00 | 0.00 | 0.00 | 34 | 1020.6 |
| 20260905015847 | 77 | 326 | 1.0 | 3.0 | 0.00 | 0.00 | 0.00 | 34 | 1020.6 |
| 20260905015343 | 77 | 304 | 0.0 | 2.0 | 0.00 | 0.00 | 0.00 | 34 | 1020.6 |
| 20260905014842 | 77 | 359 | 0.0 | 1.0 | 0.00 | 0.00 | 0.00 | 34 | 1020.6 |
| 20260905014341 | 78 | 359 | 0.0 | 1.0 | 0.00 | 0.00 | 0.00 | 33 | 1020.6 |
| 20260905013842 | 78 | 359 | 0.0 | 2.0 | 0.00 | 0.00 | 0.00 | 33 | 1020.6 |
| 20260905013342 | 79 | 359 | 0.0 | 2.0 | 0.00 | 0.00 | 0.00 | 33 | 1020.6 |
| 20260905012841 | 79 | 1 | 0.0 | 1.0 | 0.00 | 0.00 | 0.00 | 33 | 1020.6 |
| 20260905012340 | 79 | 96 | 0.0 | 0.0 | 0.00 | 0.00 | 0.00 | 33 | 1020.6 |
| 20260905012113 | 79 | 96 | 0.0 | 2.0 | 0.00 | 0.00 | 0.00 | 33 | 1020.6 |
| 20260905011342 | 80 | 96 | 0.0 | 4.0 | 0.00 | 0.00 | 0.00 | 33 | 1020.6 |
| 20260905010841 | 80 | 96 | 0.0 | 4.0 | 0.00 | 0.00 | 0.00 | 32 | 1020.6 |
| 20260905010609 | 80 | 94 | 1.0 | 2.0 | 0.00 | 0.00 | 0.00 | 32 | 1020.6 |
| 20260905005840 | 80 | 84 | 2.0 | 6.0 | 0.00 | 0.00 | 0.00 | 32 | 1020.6 |
| 20260905005338 | 81 | 71 | 3.0 | 6.0 | 0.00 | 0.00 | 0.00 | 31 | 1020.6 |
| 20260905004840 | 81 | 87 | 3.0 | 7.0 | 0.00 | 0.00 | 0.00 | 31 | 1020.6 |
| 20260905004341 | 81 | 79 | 3.0 | 7.0 | 0.00 | 0.00 | 0.00 | 31 | 1020.6 |
| 20260905003838 | 81 | 96 | 4.0 | 7.0 | 0.00 | 0.00 | 0.00 | 31 | 1020.6 |
| 20260905003338 | 82 | 106 | 3.0 | 7.0 | 0.00 | 0.00 | 0.00 | 30 | 1020.6 |
| 20260905002838 | 82 | 111 | 3.0 | 7.0 | 0.00 | 0.00 | 0.00 | 30 | 1020.6 |
| 20260905002338 | 82 | 111 | 4.0 | 7.0 | 0.00 | 0.00 | 0.00 | 30 | 1020.6 |
| 20260905002112 | 83 | 86 | 4.0 | 9.0 | 0.00 | 0.00 | 0.00 | 29 | 1020.6 |
| 20260905001336 | 83 | 103 | 5.0 | 9.0 | 0.00 | 0.00 | 0.00 | 29 | 1020.6 |
| 20260905000837 | 83 | 83 | 5.0 | 9.0 | 0.00 | 0.00 | 0.00 | 28 | 1020.6 |
| 20260905000340 | 84 | 116 | 6.0 | 11.0 | 0.00 | 0.00 | 0.00 | 28 | 1020.6 |
| 20260904235836 | 84 | 98 | 7.0 | 11.0 | 0.00 | 0.00 | 0.00 | 27 | 1020.6 |
| 20260904235609 | 85 | 84 | 6.0 | 10.0 | 0.00 | 0.00 | 0.00 | 26 | 1020.6 |
| 20260904234836 | 85 | 86 | 6.0 | 11.0 | 0.00 | 0.00 | 0.00 | 25 | 1020.6 |
| 20260904234337 | 86 | 84 | 6.0 | 11.0 | 0.00 | 0.00 | 0.00 | 25 | 1020.6 |
| 20260904233838 | 86 | 93 | 6.0 | 10.0 | 0.00 | 0.00 | 0.00 | 25 | 1020.6 |
| 20260904233337 | 86 | 79 | 5.0 | 9.0 | 0.00 | 0.00 | 0.00 | 25 | 1020.6 |
| 20260904232836 | 86 | 66 | 3.0 | 9.0 | 0.00 | 0.00 | 0.00 | 24 | 1020.6 |
| 20260904232334 | 87 | 93 | 1.0 | 7.0 | 0.00 | 0.00 | 0.00 | 22 | 1020.6 |
| 20260904231834 | 87 | 96 | 2.0 | 6.0 | 0.00 | 0.00 | 0.00 | 22 | 1020.6 |
| 20260904231608 | 88 | 138 | 3.0 | 7.0 | 0.00 | 0.00 | 0.00 | 21 | 1020.6 |
| 20260904230836 | 88 | 83 | 3.0 | 7.0 | 0.00 | 0.00 | 0.00 | 20 | 1020.6 |
| 20260904230334 | 89 | 114 | 2.0 | 6.0 | 0.00 | 0.00 | 0.00 | 20 | 1020.6 |
| 20260904225835 | 89 | 78 | 1.0 | 5.0 | 0.00 | 0.00 | 0.00 | 20 | 1020.6 |
| 20260904225335 | 89 | 97 | 1.0 | 6.0 | 0.00 | 0.00 | 0.00 | 20 | 1020.6 |
| 20260904224834 | 89 | 355 | 2.0 | 7.0 | 0.00 | 0.00 | 0.00 | 19 | 1020.6 |
| 20260904224607 | 90 | 94 | 3.0 | 7.0 | 0.00 | 0.00 | 0.00 | 19 | 1020.6 |
| 20260904223832 | 90 | 113 | 3.0 | 7.0 | 0.00 | 0.00 | 0.00 | 19 | 1020.6 |
| 20260904223603 | 90 | 115 | 2.0 | 7.0 | 0.00 | 0.00 | 0.00 | 20 | 1020.6 |
| 20260904223107 | 90 | 135 | 3.0 | 8.0 | 0.00 | 0.00 | 0.00 | 20 | 1020.6 |
| 20260904222602 | 89 | 109 | 3.0 | 9.0 | 0.00 | 0.00 | 0.00 | 20 | 1020.6 |
| 20260904221833 | 90 | 75 | 2.0 | 9.0 | 0.00 | 0.00 | 0.00 | 20 | 1020.6 |
| 20260904221334 | 89 | 98 | 2.0 | 6.0 | 0.00 | 0.00 | 0.00 | 20 | 1020.6 |
| 20260904220832 | 89 | 238 | 3.0 | 6.0 | 0.00 | 0.00 | 0.00 | 20 | 1020.6 |
| 20260904220332 | 89 | 122 | 2.0 | 8.0 | 0.00 | 0.00 | 0.00 | 20 | 1020.6 |
| 20260904215832 | 89 | 79 | 3.0 | 8.0 | 0.00 | 0.00 | 0.00 | 20 | 1020.6 |
| 20260904215334 | 89 | 89 | 4.0 | 9.0 | 0.00 | 0.00 | 0.00 | 20 | 1020.6 |
| 20260904214830 | 89 | 119 | 2.0 | 9.0 | 0.00 | 0.00 | 0.00 | 20 | 1020.6 |
| 20260904214603 | 89 | 94 | 1.0 | 6.0 | 0.00 | 0.00 | 0.00 | 20 | 1020.6 |
| 20260904213832 | 89 | 107 | 1.0 | 5.0 | 0.00 | 0.00 | 0.00 | 19 | 1020.6 |
| 20260904213331 | 90 | 99 | 4.0 | 11.0 | 0.00 | 0.00 | 0.00 | 20 | 1020.6 |
| 20260904212830 | 89 | 83 | 6.0 | 13.0 | 0.00 | 0.00 | 0.00 | 20 | 1020.6 |
| 20260904212330 | 89 | 77 | 5.0 | 13.0 | 0.00 | 0.00 | 0.00 | 20 | 1020.6 |
| 20260904211832 | 89 | 76 | 5.0 | 8.0 | 0.00 | 0.00 | 0.00 | 20 | 1020.6 |
| 20260904211331 | 90 | 70 | 3.0 | 8.0 | 0.00 | 0.00 | 0.00 | 20 | 1020.6 |
| 20260904210831 | 90 | 56 | 2.0 | 6.0 | 0.00 | 0.00 | 0.00 | 20 | 1020.6 |